TimePDT,TemperatureF,Dew PointF,Humidity,Sea Level PressureIn,VisibilityMPH,Wind Direction,Wind SpeedMPH,Gust SpeedMPH,PrecipitationIn,Events,Conditions,WindDirDegrees,DateUTC
12:15 AM,23.0,23.0,100,30.36,10.0,Calm,Calm,-,N/A,,Clear,0,2012-10-26 07:15:00
12:35 AM,23.0,23.0,100,30.35,10.0,Calm,Calm,-,N/A,,Clear,0,2012-10-26 07:35:00
12:55 AM,24.8,23.0,93,30.35,10.0,Calm,Calm,-,N/A,,Clear,0,2012-10-26 07:55:00
1:15 AM,24.8,23.0,93,30.35,10.0,Calm,Calm,-,N/A,,Clear,0,2012-10-26 08:15:00
1:35 AM,23.0,21.2,93,30.35,10.0,Calm,Calm,-,N/A,,Clear,0,2012-10-26 08:35:00
1:55 AM,23.0,23.0,100,30.35,10.0,Calm,Calm,-,N/A,,Clear,0,2012-10-26 08:55:00
2:15 AM,24.8,23.0,93,30.35,10.0,Calm,Calm,-,N/A,,Clear,0,2012-10-26 09:15:00
2:35 AM,23.0,21.2,93,30.35,10.0,Calm,Calm,-,N/A,,Clear,0,2012-10-26 09:35:00
2:55 AM,23.0,21.2,93,30.36,10.0,Calm,Calm,-,N/A,,Clear,0,2012-10-26 09:55:00
3:15 AM,21.2,19.4,93,30.36,10.0,Calm,Calm,-,N/A,,Clear,0,2012-10-26 10:15:00
3:35 AM,23.0,21.2,93,30.36,9.0,Calm,Calm,-,N/A,,Clear,0,2012-10-26 10:35:00
3:55 AM,19.4,19.4,100,30.35,9.0,Calm,Calm,-,N/A,,Clear,0,2012-10-26 10:55:00
4:15 AM,21.2,19.4,93,30.35,8.0,Calm,Calm,-,N/A,,Clear,0,2012-10-26 11:15:00
4:35 AM,19.4,19.4,100,30.35,10.0,Calm,Calm,-,N/A,,Clear,0,2012-10-26 11:35:00
4:55 AM,21.2,19.4,93,30.36,10.0,Calm,Calm,-,N/A,,Clear,0,2012-10-26 11:55:00
5:15 AM,19.4,17.6,93,30.36,10.0,Calm,Calm,-,N/A,,Clear,0,2012-10-26 12:15:00
5:35 AM,19.4,17.6,93,30.37,10.0,Calm,Calm,-,N/A,,Clear,0,2012-10-26 12:35:00
5:55 AM,19.4,17.6,93,30.37,10.0,Calm,Calm,-,N/A,,Clear,0,2012-10-26 12:55:00
6:15 AM,19.4,17.6,93,30.37,10.0,Calm,Calm,-,N/A,,Clear,0,2012-10-26 13:15:00
6:35 AM,19.4,17.6,93,30.38,10.0,Calm,Calm,-,N/A,,Clear,0,2012-10-26 13:35:00
6:45 AM,19.4,17.6,93,30.38,10.0,Calm,Calm,-,N/A,,Partly Cloudy,0,2012-10-26 13:45:00
10:55 AM,33.8,26.6,75,30.38,10.0,Calm,Calm,-,N/A,,Scattered Clouds,0,2012-10-26 17:55:00
11:45 AM,39.2,26.6,61,30.37,10.0,Calm,Calm,-,N/A,,Scattered Clouds,0,2012-10-26 18:45:00
12:45 PM,48.2,32.0,54,30.33,10.0,Calm,Calm,-,N/A,,Partly Cloudy,0,2012-10-26 19:45:00
1:50 PM,50.0,32.0,50,30.31,10.0,Calm,Calm,-,N/A,,Partly Cloudy,0,2012-10-26 20:50:00
3:55 PM,55.4,32.0,41,30.28,10.0,Calm,Calm,-,N/A,,Scattered Clouds,0,2012-10-26 22:55:00
5:55 PM,51.8,35.6,54,30.28,10.0,NNW,5.8,-,N/A,,Clear,340,2012-10-27 00:55:00
6:15 PM,44.6,35.6,71,30.29,10.0,South,3.5,-,N/A,,Clear,190,2012-10-27 01:15:00
6:35 PM,41.0,33.8,76,30.29,9.0,South,4.6,-,N/A,,Clear,190,2012-10-27 01:35:00
6:55 PM,39.2,33.8,81,30.30,10.0,Calm,Calm,-,N/A,,Clear,0,2012-10-27 01:55:00
7:15 PM,37.4,32.0,81,30.30,10.0,South,4.6,-,N/A,,Clear,170,2012-10-27 02:15:00
7:35 PM,35.6,32.0,87,30.31,10.0,Calm,Calm,-,N/A,,Clear,0,2012-10-27 02:35:00
7:55 PM,35.6,32.0,87,30.31,10.0,Calm,Calm,-,N/A,,Clear,0,2012-10-27 02:55:00
8:15 PM,37.4,32.0,81,30.31,10.0,East,3.5,-,N/A,,Clear,90,2012-10-27 03:15:00
8:35 PM,33.8,32.0,93,30.30,10.0,SW,3.5,-,N/A,,Clear,220,2012-10-27 03:35:00
8:55 PM,33.8,32.0,93,30.30,10.0,Calm,Calm,-,N/A,,Clear,0,2012-10-27 03:55:00
9:15 PM,35.6,32.0,87,30.31,10.0,Calm,Calm,-,N/A,,Clear,0,2012-10-27 04:15:00
9:35 PM,32.0,32.0,100,30.31,10.0,Calm,Calm,-,N/A,,Clear,0,2012-10-27 04:35:00
9:55 PM,32.0,32.0,100,30.31,10.0,SSE,3.5,-,N/A,,Clear,160,2012-10-27 04:55:00
10:15 PM,32.0,32.0,100,30.31,10.0,Calm,Calm,-,N/A,,Clear,0,2012-10-27 05:15:00
10:35 PM,32.0,32.0,100,30.31,10.0,Calm,Calm,-,N/A,,Clear,0,2012-10-27 05:35:00
10:55 PM,32.0,30.2,93,30.31,10.0,SW,3.5,-,N/A,,Clear,230,2012-10-27 05:55:00
11:15 PM,32.0,30.2,93,30.31,10.0,ESE,4.6,-,N/A,,Clear,110,2012-10-27 06:15:00
11:35 PM,28.4,26.6,93,30.30,10.0,South,4.6,-,N/A,,Clear,170,2012-10-27 06:35:00
11:55 PM,28.4,28.4,100,30.30,3.0,NW,3.5,-,N/A,,Clear,310,2012-10-27 06:55:00